Total_Precipitation_Accumulation
2.14 2.82 3.51 4.08 4.74 5.50 6.08 5.92 5.27 4.75 4.13 3.57 3.01 2.86 2.62 2.35 2.09 1.88 1.65 1.63 1.55 1.35 1.31 1.19 1.27 1.09 1.09 1.11 1.12 1.29 1.37 1.31 1.38 1.68 1.78 1.49 1.25 1.31 1.35 1.35 1.56 1.59 1.53
2.09 2.88 3.50 3.70 3.71 3.99 4.24 3.74 3.52 3.49 3.06 2.72 2.62 2.46 2.25 2.03 1.81 1.68 1.59 1.33 1.29 1.22 1.15 1.26 1.19 1.12 1.16 1.10 1.12 1.26 1.33 1.31 1.36 1.55 1.71 1.54 1.58 1.47 1.14 1.34 1.44 1.50 1.66
2.21 2.73 2.90 2.91 2.80 2.79 2.77 2.55 2.47 2.75 2.66 2.59 2.49 2.39 2.32 2.23 1.96 1.63 1.53 1.27 1.13 1.10 1.16 1.16 1.19 1.22 1.03 1.11 1.19 1.17 1.22 1.26 1.24 1.27 1.51 1.55 1.56 1.39 1.15 1.19 1.24 1.38 1.61
2.17 2.17 1.78 1.66 1.81 1.90 1.99 2.24 2.30 2.41 2.32 2.35 2.13 1.90 1.75 1.62 1.52 1.45 1.43 1.42 1.24 1.13 1.05 1.08 1.24 1.25 1.08 1.20 0.96 1.02 1.21 1.26 1.11 1.10 1.11 1.16 1.30 1.42 1.40 1.26 1.18 1.24 1.33
1.23 1.03 0.89 0.97 1.21 1.46 1.70 2.07 2.15 2.16 2.05 2.00 2.00 2.01 1.88 1.82 1.68 1.61 1.67 1.66 1.63 1.43 1.15 1.08 1.22 1.30 1.24 1.27 1.16 1.31 1.20 1.11 1.05 1.06 1.13 1.16 1.11 1.06 1.28 1.37 1.30 1.26 1.09
0.60 0.62 0.70 0.89 1.13 1.30 1.41 1.61 1.78 1.95 1.99 2.01 2.07 2.02 1.96 1.98 1.79 1.62 1.53 1.52 1.54 1.50 1.39 1.29 1.39 1.42 1.35 1.34 1.27 1.31 1.27 1.23 1.20 1.08 1.04 1.25 1.22 1.09 1.21 1.16 1.16 1.14 0.90
0.43 0.60 0.66 0.86 0.98 1.09 1.11 1.21 1.33 1.54 1.66 1.74 1.87 1.92 1.94 1.95 1.76 1.63 1.49 1.45 1.37 1.33 1.43 1.46 1.55 1.45 1.42 1.36 1.35 1.36 1.37 1.40 1.39 1.22 1.04 1.04 1.14 1.15 1.14 1.12 1.02 1.01 0.95
0.30 0.35 0.39 0.48 0.62 0.79 0.98 1.13 1.17 1.19 1.22 1.28 1.48 1.66 1.69 1.70 1.64 1.67 1.46 1.36 1.30 1.31 1.43 1.49 1.40 1.36 1.35 1.27 1.35 1.27 1.23 1.26 1.31 1.22 1.37 1.32 1.10 1.19 1.22 1.26 1.37 1.32 1.27
0.30 0.26 0.25 0.32 0.41 0.47 0.62 0.84 0.92 0.93 0.96 1.03 1.18 1.28 1.33 1.45 1.55 1.52 1.37 1.22 1.26 1.29 1.32 1.26 1.25 1.27 1.27 1.34 1.43 1.34 1.26 1.29 1.21 1.23 1.50 1.45 1.20 1.18 1.25 1.30 1.47 1.69 1.59
0.25 0.27 0.27 0.28 0.30 0.32 0.45 0.62 0.77 0.81 0.84 0.89 0.96 0.95 1.09 1.20 1.33 1.36 1.32 1.20 1.17 1.25 1.29 1.23 1.23 1.23 1.16 1.20 1.36 1.30 1.32 1.40 1.37 1.37 1.43 1.46 1.38 1.36 1.39 1.43 1.52 1.71 1.73
0.26 0.31 0.27 0.31 0.27 0.27 0.34 0.46 0.64 0.73 0.69 0.73 0.80 0.90 0.99 1.16 1.24 1.24 1.29 1.25 1.23 1.25 1.27 1.27 1.30 1.27 1.22 1.23 1.30 1.25 1.33 1.41 1.50 1.51 1.45 1.46 1.57 1.62 1.53 1.54 1.57 1.70 1.87
0.31 0.30 0.27 0.30 0.25 0.26 0.32 0.40 0.47 0.56 0.61 0.69 0.77 0.87 0.96 1.06 1.18 1.16 1.22 1.31 1.28 1.26 1.24 1.26 1.33 1.25 1.24 1.28 1.21 1.22 1.29 1.41 1.47 1.56 1.69 1.71 1.71 1.66 1.60 1.66 1.69 1.81 2.04
0.35 0.30 0.33 0.34 0.28 0.29 0.34 0.39 0.48 0.59 0.67 0.75 0.85 0.88 0.85 0.93 1.07 1.14 1.17 1.24 1.30 1.33 1.31 1.26 1.27 1.31 1.33 1.34 1.21 1.17 1.20 1.20 1.21 1.35 1.61 1.85 2.08 1.98 1.82 1.76 1.74 1.80 1.91
0.30 0.30 0.31 0.33 0.38 0.40 0.44 0.49 0.61 0.67 0.73 0.68 0.73 0.80 0.85 0.99 1.13 1.17 1.19 1.23 1.25 1.30 1.36 1.38 1.37 1.36 1.34 1.32 1.30 1.32 1.29 1.23 1.18 1.23 1.34 1.48 1.69 1.86 1.97 1.81 1.68 1.71 1.83
0.31 0.33 0.35 0.36 0.38 0.45 0.48 0.54 0.66 0.67 0.70 0.82 0.90 0.98 1.01 1.09 1.22 1.31 1.28 1.32 1.34 1.35 1.49 1.56 1.54 1.49 1.45 1.34 1.41 1.49 1.38 1.38 1.33 1.31 1.29 1.24 1.32 1.45 1.61 1.63 1.76 1.79 1.80
0.36 0.41 0.44 0.45 0.44 0.48 0.55 0.63 0.70 0.74 0.88 1.17 1.28 1.29 1.33 1.38 1.40 1.42 1.40 1.46 1.53 1.70 1.76 1.72 1.68 1.66 1.49 1.53 1.49 1.47 1.47 1.53 1.53 1.50 1.44 1.32 1.22 1.24 1.34 1.40 1.51 1.66 1.72
0.43 0.48 0.59 0.64 0.59 0.58 0.64 0.73 0.77 0.82 0.96 1.18 1.31 1.40 1.43 1.46 1.53 1.55 1.57 1.60 1.67 1.75 1.84 1.92 1.91 1.86 1.88 1.75 1.48 1.43 1.46 1.55 1.59 1.67 1.70 1.43 1.22 1.28 1.25 1.33 1.35 1.37 1.47
0.54 0.62 0.62 0.70 0.74 0.77 0.80 0.91 1.03 1.14 1.21 1.30 1.40 1.54 1.59 1.64 1.67 1.66 1.60 1.59 1.64 1.64 1.62 1.62 1.60 1.63 1.61 1.53 1.33 1.27 1.22 1.35 1.42 1.42 1.42 1.39 1.26 1.19 1.20 1.22 1.17 1.12 1.14
0.63 0.72 0.81 0.82 0.88 1.00 1.07 1.10 1.25 1.38 1.45 1.50 1.66 1.79 1.88 1.94 1.86 1.76 1.76 1.71 1.67 1.53 1.43 1.38 1.36 1.37 1.41 1.38 1.23 1.17 1.11 1.17 1.19 1.17 1.18 1.22 1.14 1.12 0.99 0.96 0.99 0.97 0.94
0.67 0.72 0.87 1.03 1.02 1.13 1.24 1.28 1.31 1.33 1.40 1.46 1.57 1.73 1.83 1.99 2.07 2.02 1.98 1.87 1.79 1.68 1.57 1.48 1.45 1.44 1.51 1.55 1.32 1.23 1.17 1.23 1.24 1.29 1.27 1.23 1.09 1.01 0.84 0.79 0.85 0.83 0.77
0.68 0.70 0.78 0.94 1.01 1.07 1.17 1.29 1.33 1.28 1.30 1.30 1.31 1.44 1.64 1.85 1.99 2.06 2.00 1.97 1.89 1.78 1.59 1.45 1.41 1.43 1.50 1.57 1.41 1.29 1.16 1.20 1.30 1.36 1.40 1.33 1.16 0.88 0.71 0.63 0.65 0.64 0.66
0.67 0.71 0.75 0.82 0.94 1.10 1.29 1.43 1.44 1.40 1.38 1.42 1.52 1.60 1.67 1.70 1.71 1.76 1.79 1.84 1.83 1.75 1.60 1.40 1.23 1.19 1.20 1.20 1.22 1.09 0.99 1.02 1.11 1.24 1.35 1.34 1.17 0.91 0.72 0.60 0.54 0.51 0.48
0.73 0.71 0.78 0.86 0.99 1.19 1.41 1.62 1.64 1.65 1.66 1.67 1.69 1.68 1.72 1.73 1.73 1.66 1.62 1.59 1.52 1.40 1.29 1.15 1.12 1.11 1.08 1.03 0.94 0.79 0.70 0.74 0.84 0.98 1.24 1.33 1.21 1.04 0.86 0.76 0.68 0.57 0.48
0.80 0.78 0.79 0.84 0.95 1.05 1.19 1.41 1.51 1.56 1.64 1.60 1.51 1.44 1.41 1.42 1.45 1.47 1.45 1.45 1.41 1.34 1.24 1.12 1.12 1.10 1.09 0.99 0.90 0.82 0.72 0.74 0.81 0.86 1.02 1.16 1.17 1.05 0.96 0.86 0.73 0.60 0.56
0.90 0.87 0.87 0.90 0.93 0.97 1.02 1.12 1.24 1.35 1.51 1.56 1.49 1.46 1.43 1.40 1.42 1.46 1.53 1.45 1.38 1.34 1.23 1.14 1.18 1.18 1.12 1.10 1.04 0.98 0.93 0.90 0.94 0.90 0.95 1.08 1.17 1.18 1.13 1.10 0.99 0.86 0.78
0.89 0.95 0.99 1.02 1.00 1.02 1.08 1.15 1.26 1.43 1.59 1.58 1.49 1.48 1.51 1.53 1.53 1.50 1.52 1.57 1.43 1.39 1.27 1.21 1.19 1.19 1.12 1.01 0.87 0.84 0.82 0.75 0.70 0.66 0.78 0.95 1.10 1.22 1.26 1.28 1.22 1.09 0.98